Location: Newport
(44.6370°N, 124.0520°W)
Time: 21:44:42
(UTC-08:00)

STRAND 1 - Visible Passes

Search period start: 18 February 2018 00:00
Search period end: 28 February 2018 00:00
Orbit: 769 x 781 km, 98.5° (Epoch: 18 February)

Date Brightness Start Highest point End Pass type
(mag) Time Alt. Az. Time Alt. Az. Time Alt. Az.
18 Feb ? 05:59:13 10° SE 06:03:41 31° ENE 06:08:10 10° N visible
18 Feb ? 19:46:03 10° NNE 19:51:13 68° ESE 19:56:20 10° S visible
18 Feb ? 21:26:25 10° NNW 21:29:52 18° WNW 21:33:16 10° WSW visible
19 Feb ? 05:26:57 10° E 05:30:09 17° ENE 05:33:21 10° NNE visible
19 Feb ? 19:12:29 10° NNE 19:17:10 33° E 19:21:47 10° SSE visible
19 Feb ? 20:51:42 10° N 20:56:18 33° WNW 21:00:53 10° SW visible
20 Feb ? 06:29:51 10° SSE 06:34:52 57° ENE 06:39:55 10° N visible
20 Feb ? 18:39:38 10° NE 18:42:56 17° E 18:46:13 10° SE visible
20 Feb ? 20:17:27 10° N 20:22:34 65° WNW 20:27:39 10° SSW visible
21 Feb ? 05:56:46 10° SE 06:01:10 30° ENE 06:05:35 10° N visible
21 Feb ? 19:43:32 10° NNE 19:48:41 64° ESE 19:53:46 10° S visible
21 Feb ? 21:23:48 10° NNW 21:27:21 19° WNW 21:30:53 10° WSW visible
22 Feb ? 05:24:34 10° E 05:27:39 16° ENE 05:30:43 10° NNE visible
22 Feb ? 19:10:01 10° NNE 19:14:37 32° E 19:19:10 10° SSE visible
22 Feb ? 20:49:08 10° N 20:53:46 35° WNW 20:58:24 10° SW visible
23 Feb ? 06:27:20 10° SSE 06:32:20 54° ENE 06:37:21 10° N visible
23 Feb ? 18:37:14 10° NE 18:40:22 16° E 18:43:28 10° SE visible
23 Feb ? 20:14:54 10° N 20:20:02 69° WNW 20:25:08 10° SSW visible
23 Feb ? 21:57:14 10° NW 21:58:15 11° NW 21:59:16 10° WNW visible
24 Feb ? 05:54:19 10° ESE 05:58:39 28° ENE 06:03:01 10° N visible
24 Feb ? 19:41:00 10° NNE 19:46:08 61° ESE 19:51:12 10° S visible
24 Feb ? 21:21:11 10° NNW 21:24:51 20° WNW 21:28:30 10° WSW visible
25 Feb ? 05:22:13 10° E 05:25:09 15° ENE 05:28:04 10° NNE visible
25 Feb ? 19:07:31 10° NE 19:12:03 30° E 19:16:32 10° SSE visible
25 Feb ? 20:46:33 10° N 20:51:15 37° WNW 20:55:56 10° SW visible
26 Feb ? 06:24:50 10° SE 06:29:48 51° ENE 06:34:48 10° N visible
26 Feb ? 18:34:52 10° NE 18:37:47 15° E 18:40:42 10° SE visible
26 Feb ? 20:12:21 10° N 20:17:31 72° WNW 20:22:36 10° SSW visible
26 Feb ? 21:54:19 10° NW 21:55:45 11° NW 21:57:11 10° WNW visible
27 Feb ? 05:51:52 10° ESE 05:56:08 27° ENE 06:00:25 10° N visible
27 Feb ? 19:38:29 10° NNE 19:43:35 57° E 19:48:38 10° S visible
27 Feb ? 21:18:34 10° NNW 21:22:19 21° WNW 21:26:05 10° WSW visible
